NM5PB-13 Weather Reports


Display with metric or nautical units.
time (UTC)temp
F
wind
direction
speed
MPH
gust
MPH
rain 1hr
in
rain 24hr
in
rain mn
in
humidity
%
barometer
mb
20260503015750 53 46 0.0 1.0 0.00 0.00 0.00 50 1015.0
20260503014246 53 42 0.0 1.0 0.00 0.00 0.00 48 1015.0
20260503012741 54 52 1.0 1.0 0.00 0.00 0.00 47 1015.0
20260503011238 56 67 0.0 0.0 0.00 0.00 0.00 46 1015.0
20260503005735 57 77 1.0 2.0 0.00 0.00 0.00 44 1015.0
20260503004230 58 78 1.0 1.0 0.00 0.00 0.00 42 1015.0
20260503002727 58 78 2.0 3.0 0.00 0.00 0.00 41 1015.0
20260503001223 59 66 1.0 2.0 0.00 0.00 0.00 40 1015.0
20260502235719 60 65 1.0 2.0 0.00 0.00 0.00 39 1015.0
20260502234213 60 52 1.0 2.0 0.00 0.00 0.00 38 1015.0
20260502232710 60 87 1.0 2.0 0.00 0.00 0.00 39 1016.0
20260502231206 60 65 2.0 4.0 0.00 0.00 0.00 37 1016.0
20260502225659 61 56 1.0 2.0 0.00 0.00 0.00 37 1016.0
20260502224155 61 69 1.0 2.0 0.00 0.00 0.00 37 1016.0
20260502222650 61 73 1.0 2.0 0.00 0.00 0.00 37 1016.0
20260502221146 62 97 1.0 3.0 0.00 0.00 0.00 36 1016.0
20260502215639 61 63 2.0 4.0 0.00 0.00 0.00 37 1016.0
20260502214133 61 96 1.0 2.0 0.00 0.00 0.00 38 1016.0
20260502212630 62 75 2.0 4.0 0.00 0.00 0.00 37 1016.0
20260502211126 61 88 1.0 3.0 0.00 0.00 0.00 37 1016.0
20260502205619 61 95 1.0 2.0 0.00 0.00 0.00 37 1017.0
20260502204115 61 47 1.0 2.0 0.00 0.00 0.00 36 1017.0
20260502202610 61 70 1.0 2.0 0.00 0.00 0.00 36 1017.0
20260502201107 60 69 2.0 3.0 0.00 0.00 0.00 36 1017.0
20260502195605 60 71 2.0 4.0 0.00 0.00 0.00 37 1018.0
20260502194102 60 62 2.0 3.0 0.00 0.00 0.00 38 1018.0
20260502192558 60 84 1.0 2.0 0.00 0.00 0.00 39 1018.0
20260502191054 59 65 1.0 2.0 0.00 0.00 0.00 38 1018.0
20260502185550 59 354 1.0 3.0 0.00 0.00 0.00 40 1018.0
20260502184045 58 72 2.0 3.0 0.00 0.00 0.00 37 1018.0
20260502182542 57 180 0.0 1.0 0.00 0.00 0.00 39 1019.0
20260502181039 58 53 1.0 2.0 0.00 0.00 0.00 38 1019.0
20260502164013 54 75 1.0 4.0 0.00 0.00 0.00 45 1019.0
20260502162507 54 53 2.0 4.0 0.00 0.00 0.00 42 1020.0
20260502161004 55 61 1.0 4.0 0.00 0.00 0.00 43 1020.0
20260502150945 53 83 0.0 1.0 0.00 0.00 0.00 52 1020.0
20260502122327 34 286 0.0 0.0 0.00 0.00 0.00 94 1020.0
20260502120823 32 260 0.0 0.0 0.00 0.00 0.00 94 1020.0
20260502115313 31 268 0.0 0.0 0.00 0.00 0.00 94 1020.0
20260502113800 31 0 0.0 0.0 0.00 0.00 0.00 94 1020.0
20260502112243 31 0 0.0 0.0 0.00 0.00 0.00 94 1020.0
20260502110728 31 297 0.0 0.0 0.00 0.00 0.00 93 1020.0
20260502105221 31 0 0.0 0.0 0.00 0.00 0.00 93 1020.0
20260502103714 31 249 0.0 0.0 0.00 0.00 0.00 93 1019.0
20260502102203 31 0 0.0 0.0 0.00 0.00 0.00 93 1019.0
20260502100659 31 260 0.0 0.0 0.00 0.00 0.00 92 1019.0
20260502090643 32 0 0.0 0.0 0.00 0.00 0.00 90 1019.0
20260502070614 37 0 0.0 0.0 0.00 0.00 0.00 78 1020.0
20260502065109 37 256 0.0 0.0 0.00 0.00 0.00 77 1020.0
20260502063607 38 218 0.0 0.0 0.00 0.00 0.00 76 1019.0
20260502062103 37 0 0.0 0.0 0.00 0.00 0.00 74 1020.0
20260502060601 37 309 0.0 0.0 0.00 0.00 0.00 75 1020.0
20260502055055 36 338 0.0 0.0 0.00 0.00 0.00 77 1020.0
20260502053552 36 271 0.0 0.0 0.00 0.00 0.00 78 1019.0
20260502052048 36 0 0.0 0.0 0.00 0.00 0.00 78 1019.0
20260502050543 37 261 0.0 0.0 0.00 0.00 0.00 76 1019.0
20260502045038 37 0 0.0 0.0 0.00 0.00 0.00 77 1019.0
20260502043535 39 287 0.0 0.0 0.00 0.00 0.00 75 1019.0
20260502042031 39 178 0.0 0.0 0.00 0.00 0.00 78 1019.0
20260502040527 39 0 0.0 0.0 0.00 0.00 0.00 77 1019.0
20260502035021 40 6 0.0 0.0 0.00 0.00 0.00 73 1019.0
20260502033518 41 334 0.0 0.0 0.00 0.00 0.00 70 1019.0
20260502032015 43 215 0.0 1.0 0.00 0.00 0.00 66 1019.0
20260502030512 45 251 0.0 0.0 0.00 0.00 0.00 62 1018.0
20260502025007 46 170 0.0 1.0 0.00 0.00 0.00 57 1018.0
20260502023503 46 176 0.0 0.0 0.00 0.00 0.00 56 1018.0
20260502021956 47 179 0.0 0.0 0.00 0.00 0.00 56 1018.0